When you browse on this site, cookies collect data to enhance your experience and personalize the content and advertising you see.
Visit our Privacy Policy to learn more. By continuing to use the site, you agree to this use of cookies and data.
  • en Suisse
  • Liste des pays
  • À 7 jours
  • Température de l'eau
  • Carte satellitaire
  • Carte météo
  • Widgets météo
  • user-avatar
    Se connecter

    Météo par heure à Grachevka

    Ce jour, 20 Juin, Jeudi

    Heure Température Précipitation Vent Pression Humidité
    00:00 +18°C° 0 mm 1 m/s 747 mmHg 78%
    01:00 +18°C° 0 mm 1 m/s 747 mmHg 78%
    02:00 +18°C° 0 mm 1 m/s 747 mmHg 78%
    03:00 +16°C° 0 mm 1 m/s 747 mmHg 78%
    04:00 +18°C° 0 mm 1 m/s 748 mmHg 79%
    05:00 +19°C° 0 mm 1 m/s 748 mmHg 79%
    06:00 +19°C° 0 mm 1 m/s 748 mmHg 80%
    07:00 +21°C° 0 mm 1 m/s 748 mmHg 75%
    08:00 +23°C° 0 mm 1 m/s 748 mmHg 70%
    09:00 +24°C° 0 mm 1 m/s 748 mmHg 65%
    10:00 +25°C° 0 mm 1 m/s 748 mmHg 61%
    11:00 +26°C° 0 mm 1 m/s 748 mmHg 57%
    12:00 +27°C° 0 mm 1 m/s 748 mmHg 52%
    13:00 +27°C° 0 mm 1 m/s 748 mmHg 51%
    14:00 +28°C° 0 mm 1 m/s 748 mmHg 50%
    15:00 +28°C° 0 mm 1 m/s 748 mmHg 49%
    16:00 +28°C° 0 mm 1 m/s 748 mmHg 53%
    17:00 +28°C° 0 mm 1 m/s 748 mmHg 56%
    18:00 +28°C° 0 mm 1 m/s 748 mmHg 59%
    19:00 +26°C° 0 mm 1 m/s 748 mmHg 62%
    20:00 +24°C° 0 mm 1 m/s 748 mmHg 65%
    21:00 +22°C° 0 mm 1 m/s 748 mmHg 68%
    22:00 +21°C° 0 mm 1 m/s 748 mmHg 70%
    23:00 +21°C° 0 mm 1 m/s 748 mmHg 72%

    Demain, 21 Juin, Vendredi

    Heure Température Précipitation Vent Pression Humidité
    00:00 +20°C° 0 mm 1 m/s 748 mmHg 74%
    01:00 +19°C° 0 mm 1 m/s 748 mmHg 76%
    02:00 +19°C° 0 mm 1 m/s 749 mmHg 77%
    03:00 +19°C° 0 mm 1 m/s 749 mmHg 79%
    04:00 +19°C° 0 mm 1 m/s 749 mmHg 79%
    05:00 +20°C° 0 mm 1 m/s 749 mmHg 79%
    06:00 +21°C° 0 mm 1 m/s 749 mmHg 79%
    07:00 +22°C° 0 mm 1 m/s 749 mmHg 75%
    08:00 +24°C° 0 mm 1 m/s 749 mmHg 71%
    09:00 +25°C° 0 mm 2 m/s 749 mmHg 67%
    10:00 +26°C° 0 mm 2 m/s 749 mmHg 63%
    11:00 +27°C° 0 mm 2 m/s 749 mmHg 59%
    12:00 +28°C° 0 mm 2 m/s 749 mmHg 55%
    13:00 +28°C° 0 mm 2 m/s 749 mmHg 56%
    14:00 +28°C° 0 mm 2 m/s 749 mmHg 58%
    15:00 +28°C° 0 mm 2 m/s 749 mmHg 59%
    16:00 +27°C° 0.1 mm 2 m/s 748 mmHg 63%
    17:00 +27°C° 0.1 mm 2 m/s 748 mmHg 67%
    18:00 +27°C° 0.1 mm 2 m/s 748 mmHg 70%
    19:00 +25°C° 0 mm 2 m/s 748 mmHg 73%
    20:00 +24°C° 0 mm 2 m/s 748 mmHg 76%
    21:00 +21°C° 0 mm 2 m/s 748 mmHg 78%
    22:00 +21°C° 0 mm 2 m/s 748 mmHg 79%
    23:00 +20°C° 0 mm 2 m/s 748 mmHg 80%

    Après-demain, 22 Juin, Samedi

    Heure Température Précipitation Vent Pression Humidité
    00:00 +19°C° 0 mm 2 m/s 748 mmHg 81%
    01:00 +19°C° 0 mm 2 m/s 748 mmHg 82%
    02:00 +19°C° 0 mm 2 m/s 748 mmHg 83%
    03:00 +19°C° 0 mm 2 m/s 748 mmHg 84%
    04:00 +19°C° 0 mm 2 m/s 749 mmHg 84%
    05:00 +19°C° 0 mm 3 m/s 749 mmHg 84%
    06:00 +20°C° 0 mm 3 m/s 749 mmHg 84%
    07:00 +21°C° 0 mm 3 m/s 749 mmHg 81%
    08:00 +24°C° 0 mm 3 m/s 749 mmHg 77%
    09:00 +25°C° 0 mm 3 m/s 749 mmHg 73%
    10:00 +26°C° 0 mm 4 m/s 749 mmHg 69%
    11:00 +27°C° 0 mm 4 m/s 749 mmHg 64%
    12:00 +28°C° 0 mm 5 m/s 749 mmHg 60%
    13:00 +28°C° 0 mm 5 m/s 749 mmHg 59%
    14:00 +29°C° 0 mm 5 m/s 748 mmHg 59%
    15:00 +29°C° 0 mm 5 m/s 748 mmHg 59%
    16:00 +28°C° 0 mm 4 m/s 748 mmHg 63%
    17:00 +28°C° 0 mm 4 m/s 748 mmHg 67%
    18:00 +28°C° 0 mm 3 m/s 748 mmHg 71%
    19:00 +26°C° 0 mm 3 m/s 748 mmHg 75%
    20:00 +25°C° 0 mm 3 m/s 748 mmHg 78%
    21:00 +22°C° 0 mm 3 m/s 748 mmHg 81%
    22:00 +22°C° 0 mm 3 m/s 748 mmHg 82%
    23:00 +21°C° 0 mm 3 m/s 748 mmHg 83%

    23 Juin, Dimanche

    Heure Température Précipitation Vent Pression Humidité
    00:00 +21°C° 0 mm 3 m/s 748 mmHg 84%
    01:00 +20°C° 0 mm 3 m/s 748 mmHg 85%
    02:00 +20°C° 0 mm 3 m/s 748 mmHg 87%
    03:00 +19°C° 0 mm 3 m/s 748 mmHg 88%
    04:00 +20°C° 0 mm 2 m/s 748 mmHg 87%
    05:00 +20°C° 0 mm 2 m/s 748 mmHg 87%
    06:00 +21°C° 0 mm 2 m/s 749 mmHg 86%
    07:00 +23°C° 0.1 mm 2 m/s 749 mmHg 82%
    08:00 +25°C° 0.1 mm 3 m/s 749 mmHg 77%
    09:00 +26°C° 0.1 mm 3 m/s 749 mmHg 73%
    10:00 +27°C° 0.2 mm 3 m/s 749 mmHg 70%
    11:00 +28°C° 0.2 mm 3 m/s 749 mmHg 68%
    12:00 +28°C° 0.2 mm 4 m/s 749 mmHg 65%
    13:00 +28°C° 0.3 mm 4 m/s 749 mmHg 64%
    14:00 +29°C° 0.3 mm 4 m/s 749 mmHg 63%
    15:00 +29°C° 0.3 mm 4 m/s 749 mmHg 63%
    16:00 +28°C° 0.8 mm 3 m/s 749 mmHg 66%
    17:00 +28°C° 0.8 mm 3 m/s 749 mmHg 70%
    18:00 +27°C° 0.8 mm 2 m/s 749 mmHg 73%
    19:00 +26°C° 0.2 mm 2 m/s 749 mmHg 79%
    20:00 +24°C° 0.2 mm 2 m/s 749 mmHg 84%
    21:00 +23°C° 0.2 mm 2 m/s 749 mmHg 90%
    22:00 +21°C° 0 mm 3 m/s 749 mmHg 90%
    23:00 +20°C° 0 mm 3 m/s 750 mmHg 91%

    24 Juin, Lundi

    Heure Température Précipitation Vent Pression Humidité
    00:00 +19°C° 0 mm 4 m/s 750 mmHg 92%
    01:00 +18°C° 0 mm 4 m/s 750 mmHg 90%
    02:00 +17°C° 0 mm 4 m/s 750 mmHg 89%
    03:00 +15°C° 0 mm 4 m/s 750 mmHg 87%
    04:00 +15°C° 0 mm 4 m/s 750 mmHg 85%
    05:00 +15°C° 0 mm 4 m/s 751 mmHg 83%
    06:00 +15°C° 0 mm 4 m/s 751 mmHg 81%
    07:00 +17°C° 0 mm 4 m/s 751 mmHg 76%
    08:00 +17°C° 0 mm 5 m/s 751 mmHg 72%
    09:00 +19°C° 0 mm 5 m/s 751 mmHg 67%
    10:00 +20°C° 0.1 mm 5 m/s 751 mmHg 65%
    11:00 +21°C° 0.1 mm 5 m/s 751 mmHg 63%
    12:00 +22°C° 0.1 mm 5 m/s 752 mmHg 61%
    13:00 +22°C° 0 mm 5 m/s 752 mmHg 61%
    14:00 +23°C° 0 mm 5 m/s 751 mmHg 61%
    15:00 +23°C° 0 mm 5 m/s 751 mmHg 61%
    16:00 +23°C° 0 mm 5 m/s 751 mmHg 63%
    17:00 +22°C° 0 mm 4 m/s 751 mmHg 65%
    18:00 +22°C° 0 mm 4 m/s 751 mmHg 66%
    19:00 +21°C° 0 mm 4 m/s 751 mmHg 69%
    20:00 +19°C° 0 mm 3 m/s 752 mmHg 73%
    21:00 +18°C° 0 mm 3 m/s 752 mmHg 76%
    22:00 +17°C° 0 mm 3 m/s 752 mmHg 75%
    23:00 +16°C° 0 mm 3 m/s 752 mmHg 74%

    25 Juin, Mardi

    Heure Température Précipitation Vent Pression Humidité
    00:00 +16°C° 0 mm 3 m/s 752 mmHg 74%
    01:00 +14°C° 0 mm 3 m/s 752 mmHg 74%
    02:00 +14°C° 0 mm 3 m/s 752 mmHg 75%
    03:00 +13°C° 0 mm 3 m/s 753 mmHg 76%
    04:00 +14°C° 0 mm 3 m/s 753 mmHg 77%
    05:00 +14°C° 0 mm 3 m/s 753 mmHg 79%
    06:00 +14°C° 0 mm 3 m/s 753 mmHg 80%
    07:00 +17°C° 0 mm 3 m/s 753 mmHg 74%
    08:00 +18°C° 0 mm 3 m/s 753 mmHg 69%
    09:00 +20°C° 0 mm 3 m/s 753 mmHg 63%
    10:00 +20°C° 0 mm 3 m/s 753 mmHg 59%
    11:00 +21°C° 0 mm 3 m/s 753 mmHg 56%
    12:00 +22°C° 0 mm 3 m/s 753 mmHg 52%
    13:00 +22°C° 0 mm 3 m/s 752 mmHg 53%
    14:00 +22°C° 0 mm 3 m/s 752 mmHg 53%
    15:00 +22°C° 0 mm 3 m/s 752 mmHg 53%
    16:00 +22°C° 0 mm 3 m/s 752 mmHg 55%
    17:00 +23°C° 0 mm 2 m/s 751 mmHg 58%
    18:00 +23°C° 0 mm 2 m/s 751 mmHg 60%
    19:00 +20°C° 0 mm 2 m/s 751 mmHg 64%
    20:00 +19°C° 0 mm 1 m/s 751 mmHg 68%
    21:00 +18°C° 0 mm 1 m/s 751 mmHg 72%
    22:00 +15°C° 0 mm 0 m/s 751 mmHg 72%
    23:00 +15°C° 0 mm 0 m/s 751 mmHg 73%
    Voir plus